STARLINK-4709, 53778

Orbit data source: Space-Track

STARLINK-4709, 53778 is a payload satellite owned by SpaceX/Seattle (US) in LEO that was launched on Sun, 11 Sep 2022 UTC via an FALCON 9 launch vehicle from the Air Force Eastern Test Range (AFETR). Payload-class satellites include a variety of spacecraft equipped with specific instruments for various scientific and technological missions. These include communications satellites like Starlink; space stations such as the ISS; scientific satellites like the Hubble; Earth observation satellites from companies like Planet Labs, Umbra, and HawkEye 360; GPS; miniature CubeSats for education and research; and military/defense satellites.

Loading next visibility...
Identifier
53778, 2022-111F
Orbit
LEO
Country
Flag of USUS
Related business
Manufacturer
SpaceX/Seattle
Mission
Operational Commercial Communications
Bus & Motor
STARLINK, Unknown motor
Mass
305 kg wet, ~290 kg dry
Launch date (UTC)
2022-09-11 (3 years ago)
Launch vehicle
FALCON 9
Launch site
Air Force Eastern Test Range (AFETR)
Object type
Payload
Rocket body
Debris
Shape & HBR
Box + 1 Pan, 10.1 m
Radar Cross Section
13.562 m², Large (>1 m²)

Expand to show TLE details & history
Last TLE update: 14 hours ago

TLE from 14 hours ago
0 STARLINK-4709
1 53778U 22111F   25341.24351328  .00001244  00000-0  96235-4 0  9990
2 53778  53.2181 333.8540 0001360  90.6232 269.4916 15.08841600179670
Epoch: 2025-12-07T05:50Z
TLE epoch observation values (Epoch: 2025-12-07T05:50:39.547Z)
Latitude
-0.00002°
Longitude
169.92951°
Altitude
540.645 km
Speed
7.593 km/s
True Right ascension
22h 15m 24s
True Declination
0° 00' 00"
Sunlit
Object was in daylight at epoch
Visualization orbit readout
Latitude
Unknown
Longitude
Unknown
Altitude
Unknown
Speed
Unknown
Apparent Right ascension
Unknown
Apparent Declination
Unknown
Sunlit
N/A
Visualization observer readout
Local Sidereal Time
17:27:54
Azimuth
Unknown
Elevation
Unknown
Doppler factor
Unknown
Orbital elements
Apogee altitude
540.924 km
Perigee altitude
539.042 km
Semi-major axis
6,918.12 km
Eccentricity
0.00014
Inclination
53.2181°
RAAN
333.854°
Arg. of periapsis
90.6232°
True anomaly
269.47602°
Mean anomaly
269.4916°
Eccentric anomaly
269.48381°
Mean motion
3.77191 °/min
Orbital period
95.44 mins
BSTAR
0.000096235
Loading maneuver chart data...
Computing Atmospheric mass density...
Loading historical data...
Loading historical data...
Loading historical data...
Loading historical data...
Loading historical data...
Loading historical data...
Loading historical data...

Documentation

Showing up to 5 results
|